Location: Mohawk View
(42.7837°N, 73.7885°W)
Time: 15:10:44
(UTC+00:00)

Aureole 3 Rocket - Pass Details

Date: 17 June 2021
Orbit: 399 x 1739 km, 82.5° (Epoch: 01 August)

Event Time Altitude Azimuth Distance (km) Brightness Sun altitude
Rises 06:48:07 0° 354° (N) 2,542 7.2 -19.0°
Reaches altitude 10° 06:49:58 10° 357° (N) 1,759 6.3 -18.8°
Maximum altitude 06:53:44 71° 82° (E) 665 3.2 -18.5°
Enters shadow 06:56:50 22° 162° (SSE) 1,549 4.7 -18.2°
